www.pogodaiklimat.ru

Погода и климат >> Архив погоды >> Россия >> Ненецкий АО >> Хорей-Вер


ПОГОДА в Хорей-Вере

  • Прогноз погоды в Хорей-Вере
  • Монитор погоды в Хорей-Вере

АРХИВ ПОГОДЫ в Хорей-Вере

Время (UTC), дата Ветер
(напр.,м/с)
 
Видим.   Явления Облачность Т
(С)
Тd
(С)
f
(%)
Тe
(С)
Тes
(С)
Комфортность P
(гПа)
Po
(гПа)
Тmin
(С)
Tmax
(С)
R
(мм)
R24
(мм)
S
(см)
12 18.06 СЗ 8-12
{15}
20 км в посл. час ливневой дождь 10/10 300 м
[Cb cap]
+3.4 +1.8 89 -3 -3 1000.8 992.1
15 18.06 СЗ 7-10
{13}
10 км слаб. ливневой дождь 10/10 300 м
[Cb cap]
+2.8 +1.9 94 -4 -4 1001.9 993.2 +5.8 0.9
18 18.06 СЗ 5
{12}
4000 м слаб. дождь 10/10 200 м
[Frnb Ns]
+2.5 +1.9 96 -3 -3 1002.1 993.3
21 18.06 СЗ 5
{11}
20 км {дождь} 10/10 200 м
[Sc diur, vesp]
+2.3 +1.4 94 -3 -3 1002.3 993.5
00 19.06 СЗ 6
{10}
20 км {дождь} 10/10 200 м
[St]
+1.8 +1.1 95 -5 -5 1002.9 994.1
03 19.06 СЗ 4 20 км 10/10 300 м
[Cb cap]
+2.6 +0.4 85 -2 -2 1003.3 994.5 +1.5 1
06 19.06 СЗ 5 20 км 10/10 300 м
[Cb cap]
+3.6 +1.2 84 -2 -2 1003.7 994.9
09 19.06 СЗ 6-11
{11}
10 км слаб. ливневой дождь 10/10 300 м
[Cb cap]
+3.4 +1.2 85 -2 -2 1005.0 996.2
12 19.06 СЗ 5
{11}
20 км {ливн. осадки} 10/10 300 м
[Cb cap]
+5.1 -0.1 69 +1 +1 1006.1 997.4
15 19.06 СЗ 4 20 км 9/9 300 м
[Sc]
+4.8 -1.1 66 +1 +1 1006.8 998.1 +5.5 0.4
18 19.06 З 3 20 км 10/10 600 м
[Sc]
+4.1 +0.5 77 +1 +1 1006.4 997.6
21 19.06 З 2 н/о н/о +2.4 +1.3 92 -1 -1 1005.9 997.1
00 20.06 З 2 н/о н/о +2.8 +1.6 92 -0 -0 1005.4 996.6
03 20.06 З 3 н/о н/о +4.0 +1.1 81 0 0 1005.0 996.2 +2.3
06 20.06 СЗ 4 20 км 10/10 300 м
[Cb cap]
+5.7 +1.3 73 +2 +2 1004.9 996.2
09 20.06 СЗ 4 20 км в посл. час ливневой дождь 10/10 300 м
[Cb cap]
+6.9 +1.1 67 +4 +4 1004.9 996.2
12 20.06 С 5 20 км {ливн. осадки} 10/10 300 м
[Cb cap]
+7.1 +2.2 71 +3 +3 1005.8 997.1
15 20.06 СЗ 5
{10}
20 км 9/9 300 м
[Cb cap]
+5.9 -0.3 64 +2 +2 1007.3 998.6 +7.5 0.0
18 20.06 СЗ 3 20 км 8/8 300 м
[Sc diur, vesp]
+4.6 -0.8 68 +1 +1 1008.2 999.4
21 20.06 ЮЗ 2 20 км 9/9 600 м
[Sc diur, vesp]
+1.4 -0.0 90 -2 -2 1008.3 999.4
00 21.06 З 4 20 км 9/4 600 м
[Sc Ac As]
+3.0 +0.8 85 -2 -2 1008.1 999.3
03 21.06 З 6
{10}
20 км 9/9 300 м
[Cu Sc]
+5.4 +1.2 74 +1 +1 1007.6 998.9 +1.0
06 21.06 З 7-11
{13}
20 км в посл. час ливневой дождь 9/8 300 м
[Cb cap Ci fib]
+6.4 +1.9 73 +2 +2 1007.7 999.0
09 21.06 СЗ 7-11
{13}
20 км в посл. час ливневой дождь 10/8 300 м
[Cb cap As op Ci sp]
+4.8 +1.5 79 -1 -0 1009.5 1000.7
12 21.06 СЗ 7-12
{12}
20 км в посл. час ливневой дождь 10/10 300 м
[Cb cap]
+4.0 +2.1 87 -2 -2 1010.8 1002.0
15 21.06 СЗ 5
{12}
20 км {ливн. осадки} 10/9 300 м
[Cb cap Ac As]
+6.4 +2.0 73 +2 +2 1010.6 1001.9 +7.6 0.3
18 21.06 СЗ 6
{12}
20 км {ливн. осадки} 9/9 600 м
[Sc]
+5.3 +2.0 79 0 0 1010.6 1001.9
21 21.06 СЗ 4 20 км 9/5 300 м
[Sc Ac trans]
+3.6 +1.3 85 -1 -1 1010.5 1001.7
00 22.06 СЗ 5 20 км 10/10 200 м
[St]
+2.4 +0.5 87 -3 -3 1010.7 1001.8
03 22.06 З 4 20 км 10/10 300 м
[Sc]
+3.0 +1.1 87 -2 -2 1010.5 1001.7 +2.3
06 22.06 З 4 20 км 10/10 300 м
[Sc]
+3.8 +1.5 85 -1 -1 1010.2 1001.4
09 22.06 СЗ 4 20 км 9/9 300 м
[Sc Ci sp]
+6.7 +2.4 74 +3 +4 1009.9 1001.2
12 22.06 СЗ 3 20 км 3/3 300 м
[Cu hum Ci sp]
+10.5 +3.2 61 +9 +13 1009.2 1000.6
15 22.06 С 4 20 км 3/1 300 м
[Cu hum Ac trans]
+10.3 +3.0 61 +8 +9 1008.6 1000.0 +11.5
18 22.06 СВ 3 20 км 3/0
[Ac trans]
+6.5 +2.6 76 +4 +4 1008.8 1000.1
21 22.06 В 2 20 км 3/0
[Ac trans]
+1.5 +0.7 94 -2 -2 1008.3 999.4
00 23.06 В 2 н/о н/о +2.2 +1.0 92 -1 -1 1007.8 999.0
03 23.06 В 2 20 км 10/10 300 м
[Cb cap]
+3.7 +2.0 89 +1 +1 1006.3 997.5 +1.2
06 23.06 ЮВ 3 20 км 8/4 600 м
[Sc Ac trans]
+7.5 +3.0 73 +5 +8 1004.3 995.7
09 23.06 В 2 20 км 9/4 600 м
[Cu Sc Ac As]
+11.1 +3.4 59 +10 +13 1002.8 994.3
12 23.06 В 2 10 км слаб. дождь 10/0
[As op]
+10.5 +7.1 79 +9 +11 1001.8 993.3
15 23.06 В 2 4000 м слаб. дождь 10/0
[As op]
+9.5 +7.7 89 +8 +8 1001.4 992.8 +11.8 2
18 23.06 СВ 2 4000 м слаб. дождь 10/6 300 м
[Frnb As op]
+5.9 +5.1 95 +3 +3 1002.3 993.6
21 23.06 С 4 20 км {дождь} 10/0
[Ac As]
+4.0 +2.3 89 -1 -1 1003.0 994.2
00 24.06 С 5 н/о н/о +3.5 +2.6 94 -2 -2 1004.1 995.3
03 24.06 СЗ 4 4000 м слаб. дождь 10/10 300 м
[Frnb Ns]
+3.6 +2.7 94 -1 -1 1005.3 996.5 +3.4 3
06 24.06 С 5
{10}
10 км слаб. ливневой дождь 10/10 300 м
[Cb cap]
+4.2 +2.8 91 -1 -1 1006.7 997.9
09 24.06 С 5
{12}
20 км {ливн. осадки} 9/9 300 м
[Cb cap]
+5.6 +2.2 79 +1 +2 1008.8 1000.1
12 24.06 СЗ 6-11
{11}
20 км {ливн. осадки} 9/9 300 м
[Cb cap]
+6.0 +0.8 69 +2 +2 1011.2 1002.5
15 24.06 СЗ 5
{12}
20 км в посл. час ливневой дождь 10/10 300 м
[Cb cap]
+4.8 +2.1 83 0 0 1012.4 1003.6 +7.0 0.5
18 24.06 СЗ 4 20 км {ливн. осадки, морось} 10/3 300 м
[St Ac As]
+4.1 +3.1 93 -1 -1 1012.9 1004.1
21 24.06 СЗ 4 20 км в посл. час ливневой дождь 10/10 300 м
[Cb cap]
+3.7 +2.3 91 -1 -1 1013.5 1004.7
00 25.06 СЗ 4 20 км {ливн. осадки} 10/10 300 м
[Sc]
+3.9 +2.6 91 -1 -1 1013.8 1005.0
03 25.06 СЗ 6-10
{10}
20 км 10/10 300 м
[Cb cap]
+3.7 +2.5 92 -2 -2 1014.8 1006.0 +3.5 0.0
06 25.06 СЗ 6-11
{12}
10 км слаб. ливневой дождь 10/10 300 м
[Cb cap]
+5.0 +2.5 84 -0 -0 1015.5 1006.7

 

Местоположение метеостанции Хорей-Вер (Ненецкий АО, Россия): широта 67.43 долгота 58.02 высота над уровнем моря 72 м.

В архиве по умолчанию представлена погода в Хорей-Вере за последнюю неделю. Архивные данные за месяц целиком и за предыдущие месяцы, начиная с января 2011 года, Вы можете получить, выбрав интересующий диапазон дат из раскрывающегося списка и нажав кнопку "Ввод!".


*Определитесь, кто Вы:
робот инопланетянин человек

Внимание! Время в таблицах - всемирное. Для получения местного времени необходимо прибавить поправку, которая равна 3 ч.

Смотрите также архив погоды в соседних городах и на ближайших метеорологических станциях:

Погода в Харуте (Ненецкий АО, Россия) (92 км)
Погода в Варандее (Ненецкий АО, Россия) (155 км)
Погода в Усинске (Коми, Россия) (158 км)
Погода на Мысе Константиновском (Ненецкий АО, Россия) (163 км)
Погода в Петруни (Коми, Россия) (163 км)
Погода в Усть-Усе (Коми, Россия) (169 км)
Погода в Мутном Материке (Коми, Россия) (207 км)
Погода в Нарьян-Маре (Ненецкий АО, Россия) (214 км)
Погода в Ходоварихе (Ненецкий АО, Россия) (243 км)
Погода в Воркуте (Коми, Россия) (254 км)

Пояснения к столбцам:

Ветер - указаны скорость ветра в м/с - средняя за 10 мин, порывы в срок и между сроками (в фигурных скобках) и направление, откуда дует ветер: С - северный, СВ - северо-восточный, В - восточный, ЮВ - юго-восточный, Ю - южный, ЮЗ - юго-западный, З - западный, СЗ - северо-западный.
Видимость - горизонтальная дальность видимости в метрах или километрах. При видимости от 1 до 10 км при отсутствии осадков обычно наблюдается дымка, при ухудшении видимости до 1 км и менее - туман. В сухую погоду видимость может ухудшаться дымом, пылью или мглою.
Явления - указаны атмосферные явления, наблюдавшиеся в срок или в последний час перед сроком; фигурными скобками обозначены явления, наблюдавшиеся между сроками (за 1-3 часа до срока); квадратными скобками обозначены град или гололедные отложения с указанием их диаметра в мм.
Облачность - указаны через наклонную черту общая и нижняя облачность в баллах и высота нижней границы облаков в метрах; квадратными скобками обозначены формы облаков: Ci - перистые, Cs - перисто-слоистые, Cc - перисто-кучевые, Ac - высококучевые, As - высокослоистые, Sc - слоисто-кучевые, Ns - слоисто-дождевые, Cu - кучевые, Cb - кучево-дождевые. Подробнее классификацию облаков см. в Атласе облаков (PDF).
T - Температура воздуха - температура, измеренная на высоте 2 м над землей.
Td - Температура точки росы - температура, при понижении до которой содержащийся в воздухе водяной пар достигнет насыщения.
f - Относительная влажность воздуха - влажноcть воздуха, измеренная на высоте 2 м над землей.
Te - Эффективная температура - температура, которую ощущает одетый по сезону человек в тени. Характеристика душности погоды. При расчете учитывается влияние влажности воздуха и скорости ветра на теплоощущения человека.
Tes - Эффективная температура на солнце - температура, которую ощущает человек, с поправкой на солнечный нагрев. Характеристика знойности погоды. Зависит от высоты солнца над горизонтом, облачности и скорости ветра. Ночью, в пасмурную погоду, а также при ветре 12 м/с и более поправка равна нулю.
P - Атмосферное давление - приведенное к уровню моря атмосферное давление.
Po - Атмосферное давление - измеренное на уровне метеостанции атмосферное давление.
Tmin - Минимальная температура - минимум температуры воздуха на высоте 2 м над землей.
Tmax - Максимальная температура - максимум температуры воздуха на высоте 2 м над землей.
R - Количество осадков - Количество выпавших осадков за период времени, мм. При наведении курсора мыши на число - период времени, за который выпало указанное количество осадков.
R24 - Количество осадков - Количество выпавших осадков за 24 часа, мм.
S - Снежный покров - Высота снежного покрова, см. При наведении курсора мыши на число - состояние снежного покрова и степень покрытия местности в баллах.